This demonstration page uses our WeatherBlox Daily Observations layout. Learn more.

Left ArrowRight Arrow

34.16533, -84.80231

Hourly Observations for October 8, 2020

Temp ( °F °C ) Dew Point ( °F °C ) Humidity (%) Winds ( mph kmh ) Pressure ( in mb ) Visibility ( mi km ) Precip ( " mm )
12:53 am 00:53 Clear 57 13.9 55 12.8 93 93 Calm 30.06 1018 7 11 0.00 0.00
1:53 am 01:53 Clear 56 13.3 54 12.2 93 93 Calm 30.06 1018 7 11 0.00 0.00
2:38 am 02:38 Mostly Clear with Mist and Fog 55 12.8 53 11.7 93 93 Calm 30.10 1019 6 10 0.00 0.00
2:53 am 02:53 Mostly Clear with Mist and Fog 55 12.8 53 11.7 93 93 Calm 30.07 1018 5 8 0.00 0.00
3:12 am 03:12 Mostly Cloudy with Mist and Fog 55 12.8 53 11.7 93 93 Calm 30.10 1019 6 10 0.00 0.00
3:19 am 03:19 Partly Cloudy with Mist and Fog 55 12.8 52 11.1 90 90 Calm 30.10 1019 6 10 0.00 0.00
3:34 am 03:34 Mostly Cloudy with Mist and Fog 54 12.2 52 11.1 93 93 Calm 30.09 1019 5 8 0.00 0.00
3:53 am 03:53 Mostly Cloudy with Mist and Fog 55 12.8 52 11.1 90 90 Calm 30.06 1018 4 6 0.00 0.00
4:09 am 04:09 Partly Cloudy with Mist and Fog 54 12.2 52 11.1 93 93 Calm 30.09 1019 2 3 0.00 0.00
4:16 am 04:16 Mostly Clear with Mist and Fog 54 12.2 52 11.1 93 93 Calm 30.09 1019 2 2 0.00 0.00
4:25 am 04:25 Clear with Mist and Fog 53 11.7 51 10.6 93 93 Calm 30.09 1019 2 3 0.00 0.00
4:39 am 04:39 Clear with Mist and Fog 54 12.2 51 10.6 90 90 Calm 30.09 1019 4 6 0.00 0.00
4:53 am 04:53 Clear with Mist and Fog 54 12.2 51 10.6 90 90 Calm 30.06 1018 6 10 0.00 0.00
5:01 am 05:01 Partly Cloudy with Mist and Fog 54 12.2 51 10.6 90 90 Calm 30.09 1019 6 10 0.00 0.00
5:20 am 05:20 Mostly Cloudy with Mist and Fog 54 12.2 51 10.6 90 90 Calm 30.10 1019 4 6 0.00 0.00
5:49 am 05:49 Partly Cloudy with Mist and Fog 54 12 52 11 94 94 Calm 30.10 1019 6 10 0.00 0.00
5:53 am 05:53 Mostly Clear with Mist and Fog 53 11.7 51 10.6 93 93 Calm 30.06 1018 6 10 0.00 0.00
6:53 am 06:53 Mostly Cloudy with Mist and Fog 54 12.2 51 10.6 90 90 VRB 3 6 30.08 1019 4 6 0.00 0.00
7:03 am 07:03 Mostly Clear 54 12.2 51 10.6 90 90 Calm 30.11 1020 7 11 0.00 0.00
7:53 am 07:53 Partly Cloudy with Mist and Fog 54 12.2 51 10.6 90 90 Calm 30.09 1019 6 10 0.00 0.00
8:53 am 08:53 Mostly Sunny 57 13.9 54 12.2 90 90 Calm 30.11 1020 7 11 0.00 0.00
9:53 am 09:53 Sunny 61 16.1 57 13.9 87 87 Calm 30.11 1020 7 11 0.00 0.00
10:53 am 10:53 Sunny 67 19.4 59 15 76 76 SSW 5 7 30.12 1020 9 14 0.00 0.00
11:53 am 11:53 Sunny 72 22.2 60 15.6 66 66 VRB 3 6 30.12 1020 10 16 0.00 0.00
12:53 pm 12:53 Sunny 80 26.7 60 15.6 51 51 VRB 5 7 30.10 1019 10 16 0.00 0.00
1:53 pm 13:53 Sunny 81 27.2 57 13.9 44 44 Calm 30.09 1019 10 16 0.00 0.00
2:53 pm 14:53 Sunny 81 27.2 59 15 47 47 S 5 7 30.06 1018 10 16 0.00 0.00
3:53 pm 15:53 Sunny 84 28.9 59 15 43 43 Calm 30.05 1018 10 16 0.00 0.00
4:53 pm 16:53 Sunny 82 27.8 59 15 46 46 Calm 30.04 1017 10 16 0.00 0.00
5:53 pm 17:53 Sunny 80 26.7 63 17.2 56 56 Calm 30.04 1017 10 16 0.00 0.00
6:53 pm 18:53 Sunny 70 21.1 65 18.3 84 84 Calm 30.06 1018 10 16 0.00 0.00
7:53 pm 19:53 Clear 68 20 64 17.8 87 87 SSE 3 6 30.06 1018 10 16 0.00 0.00
8:53 pm 20:53 Clear 68 20 64 17.8 87 87 Calm 30.08 1019 10 16 0.00 0.00
9:53 pm 21:53 Clear 67 19.4 64 17.8 91 91 Calm 30.07 1018 10 16 0.00 0.00
10:53 pm 22:53 Clear 66 18.9 63 17.2 90 90 Calm 30.09 1019 8 13 0.00 0.00
11:53 pm 23:53 Clear 66 18.9 63 17.2 90 90 Calm 30.09 1019 8 13 0.00 0.00

Powered by AerisWeather